This demonstration page uses our WeatherBlox Daily Observations layout. Learn more.

38.89511, -77.03637

Hourly Observations for November 17, 2019

Temp ( °F °C ) Dew Point ( °F °C ) Humidity (%) Winds ( mph kmh ) Pressure ( in mb ) Visibility ( mi km ) Precip ( " mm )
12:52 am 00:52 Cloudy 39 3.9 13 -10.6 34 34 NNE 17 28 30.33 1027 10 16.09344 0 0
1:52 am 01:52 Cloudy 38 3.3 14 -10 37 37 NNE 18 30 30.3 1026 10 16.09344 0 0
2:10 am 02:10 Cloudy 38 3.3 14 -10 37 37 NNE 20 31 30.33 1027 10 16.09344 0 0
2:34 am 02:34 Cloudy 38 3.3 14 -10 37 37 NE 15 24 30.33 1027 10 16.09344 0 0
2:52 am 02:52 Cloudy 38 3.3 14 -10 37 37 NE 17 28 30.3 1026 10 16.09344 0 0
3:52 am 03:52 Cloudy 37 2.8 14 -10 39 39 NNE 16 26 30.3 1026 10 16.09344 0 0
4:04 am 04:04 Cloudy 37 2.8 14 -10 39 39 NNE 14 22 30.3 1026 10 16.09344 0 0
4:52 am 04:52 Cloudy 37 2.8 16 -8.9 42 42 NNE 15 24 30.27 1025 10 16.09344 0 0
5:52 am 05:52 Cloudy 37 2.8 19 -7.2 48 48 NNE 14 22 30.27 1025 10 16.09344 0 0
6:52 am 06:52 Cloudy 37 2.8 19 -7.2 48 48 NNE 15 24 30.27 1025 10 16.09344 0 0
7:52 am 07:52 Cloudy 37 2.8 20 -6.7 50 50 NNE 17 28 30.27 1025 10 16.09344 0 0
8:52 am 08:52 Cloudy 38 3.3 22 -5.6 52 52 NNE 15 24 30.27 1025 10 16.09344 0 0
9:52 am 09:52 Cloudy 40 4.4 25 -3.9 55 55 NE 13 20 30.27 1025 10 16.09344 0 0
10:52 am 10:52 Cloudy 43 6.1 27 -2.8 53 53 NE 14 22 30.24 1024 10 16.09344 0 0
11:52 am 11:52 Cloudy 43 6.1 29 -1.7 58 58 NE 9 15 30.21 1023 10 16.09344 0 0
12:52 pm 12:52 Cloudy 45 7.2 31 -0.6 58 58 NNE 13 20 30.15 1021 10 16.09344 0 0
1:52 pm 13:52 Cloudy 45 7.2 32 0 61 61 NNE 10 17 30.12 1020 10 16.09344 0 0
2:52 pm 14:52 Cloudy 46 7.8 33 0.6 61 61 NNE 12 19 30.12 1020 10 16.09344 0 0
3:52 pm 15:52 Cloudy 45 7.2 33 0.6 63 63 NE 12 19 30.09 1019 10 16.09344 0 0
4:43 pm 16:43 Cloudy 44 6.7 34 1.1 68 68 NE 14 22 30.12 1020 10 16.09344 0 0
4:52 pm 16:52 Cloudy 44 6.7 34 1.1 68 68 NE 12 19 30.09 1019 10 16.09344 0 0
5:15 pm 17:15 Cloudy 44 6.7 34 1.1 68 68 NE 12 19 30.09 1019 10 16.09344 0 0
5:52 pm 17:52 Cloudy 45 7.2 34 1.1 66 66 NNE 10 17 30.09 1019 10 16.09344 0 0
6:52 pm 18:52 Cloudy 44 6.7 35 1.7 71 71 NNE 12 19 30.09 1019 10 16.09344 0 0
7:52 pm 19:52 Cloudy 43 6.1 36 2.2 76 76 N 12 19 30.06 1018 10 16.09344 0 0
8:52 pm 20:52 Cloudy 43 6.1 36 2.2 76 76 NNE 13 20 30.03 1017 10 16.09344 0 0
9:52 pm 21:52 Cloudy 43 6.1 36 2.2 76 76 N 13 20 30.03 1017 10 16.09344 0 0
10:52 pm 22:52 Cloudy 43 6.1 36 2.2 76 76 N 10 17 30 1016 10 16.09344 0 0
11:52 pm 23:52 Cloudy 42 5.6 36 2.2 79 79 N 12 19 30 1016 10 16.09344 0 0

Powered by AerisWeather